Track LAPAN-TUBSAT now! 10-day predictions LAPAN-TUBSAT is classified as:
1 29709U 07001A 23152.92343399 .00000624 00000-0 83243-4 0 9996 2 29709 98.0184 120.4153 0012215 193.7039 166.3844 14.83090557886273